Weather observations for the past three days for
San Antonio, San Antonio International Airport
Metric (Imperial)
Date Time (cdt) Wind (kph) Vis. (km) Weather Sky Cond. Temperature (ºC) Relative Humidity Wind Chill (°C) Heat Index (°C) Pressure Precipitation (cm)
Air Dwpt 6 hour altimeter (cm) sea level (mb) 1 hr 3 hr 6 hr
Max. Min.
15 18:51 SE 28 16.09 A Few Clouds FEW065 FEW250 34.4 19.4 36.1 32.8 41% 36 76.02 1011.6
15 17:51 S 11 G 30 16.09 A Few Clouds FEW065 FEW250 35 21.1 44% 39 76.05 1011.9
15 16:51 S 19 G 33 16.09 A Few Clouds FEW060 35 21.1 44% 39 76.1 1012.5
15 15:51 SW 13 G 37 16.09 A Few Clouds FEW060 35 20.6 43% 38 76.15 1013.2
15 14:51 SE 19 G 26 16.09 A Few Clouds FEW060 35 20 41% 38 76.23 1014.2
15 13:51 S 19 16.09 A Few Clouds FEW055 33.9 19.4 42% 36 76.3 1015.2
15 12:51 S 17 G 31 16.09 A Few Clouds FEW045 32.8 21.1 32.8 25.6 50% 36 76.35 1016.1
15 11:51 S 19 16.09 A Few Clouds FEW038 FEW250 31.1 21.7 57% 34 76.4 1016.6
15 10:51 S 15 16.09 Partly Cloudy FEW025 SCT250 30 22.8 65% 34 76.43 1017.0
15 09:51 S 19 16.09 Mostly Cloudy BKN019 BKN250 28.9 23.3 72% 33 76.45 1017.4
15 08:51 SE 19 16.09 Mostly Cloudy BKN015 BKN250 27.2 23.3 79% 30 76.48 1017.6
15 07:51 S 17 16.09 Mostly Cloudy BKN014 BKN200 26.1 23.3 85% 28 76.43 1017.1
15 06:51 S 17 16.09 Overcast OVC012 25.6 23.9 26.7 25 90% 27 76.4 1016.6
15 05:51 SE 11 16.09 Mostly Cloudy SCT015 BKN200 25.6 23.9 90% 27 76.35 1016.1
15 03:51 S 11 16.09 Overcast BKN015 OVC200 26.1 23.9 88% 28 76.33 1015.7
15 02:51 S 17 G 30 16.09 Overcast BKN015 OVC200 26.1 23.9 88% 28 76.38 1016.1
15 01:51 S 11 16.09 Mostly Cloudy BKN017 BKN250 26.7 23.3 82% 29 76.4 1016.6
15 00:51 S 11 16.09 Mostly Cloudy SCT180 BKN250 26.7 23.3 31.1 26.7 82% 29 76.43 1016.9
14 23:51 SE 11 16.09 Mostly Cloudy SCT190 BKN250 27.2 23.9 82% 30 76.43 1017.0
14 22:51 SE 17 16.09 Mostly Cloudy SCT190 BKN250 28.3 23.3 74% 32 76.4 1016.6
14 21:51 SE 11 16.09 Partly Cloudy FEW180 SCT250 28.3 22.2 70% 31 76.38 1016.4
14 20:51 S 11 16.09 Mostly Cloudy FEW180 BKN250 29.4 21.1 61% 32 76.38 1016.4
14 19:51 SE 15 16.09 Mostly Cloudy FEW180 BKN250 30 21.1 59% 33 76.38 1016.5
14 18:51 SE 19 16.09 Mostly Cloudy FEW180 BKN250 31.1 22.2 31.1 28.9 59% 35 76.4 1016.8
14 17:51 S 17 16.09 Mostly Cloudy FEW040 BKN250 30.6 21.1 57% 33 76.4 1016.7
14 16:51 S 15 16.09 Overcast FEW040 OVC200 30.6 20.6 55% 33 76.45 1017.4
14 15:51 SE 11 16.09 Overcast SCT040 BKN180 OVC250 31.1 21.7 57% 34 76.48 1017.8
14 14:51 Vrbl 11 16.09 Overcast FEW038 OVC210 31.1 22.8 61% 35 76.53 1018.4
14 13:51 S 15 16.09 Overcast FEW029 OVC200 30 22.8 65% 34 76.58 1019.1
14 12:51 S 13 16.09 Overcast FEW026 BKN180 OVC250 28.9 22.8 28.9 25.6 70% 32 76.63 1019.7
14 11:51 S 13 16.09 Overcast SCT025 BKN180 OVC250 28.3 22.2 70% 31 76.63 1020.0
14 10:51 S 15 16.09 Overcast BKN023 BKN180 OVC250 28.3 22.8 72% 32 76.63 1019.9
14 09:51 S 15 16.09 Overcast BKN017 BKN190 OVC250 27.8 23.3 77% 31 76.66 1020.3
14 08:51 S 11 16.09 Overcast BKN013 OVC200 26.1 23.3 85% 28 76.66 1020.3
14 07:51 S 7 16.09 Overcast BKN012 OVC190 25.6 23.9 90% 27 76.63 1019.7
14 06:51 S 9 16.09 Overcast BKN010 OVC250 25.6 23.9 26.1 25.6 90% 27 76.58 1019.1
14 05:51 S 13 16.09 Mostly Cloudy BKN010 BKN250 26.1 23.9 88% 28 76.56 1018.8
14 04:51 S 15 16.09 Mostly Cloudy BKN012 BKN250 25.6 24.4 93% 27 76.53 1018.6
14 03:51 S 15 16.09 Overcast BKN011 OVC250 26.1 24.4 90% 28 76.56 1018.6
14 02:51 S 17 16.09 Mostly Cloudy BKN010 BKN250 26.1 24.4 90% 28 76.56 1018.9
14 01:51 SE 19 16.09 Overcast BKN013 OVC180 25.6 24.4 93% 27 76.63 1019.7
14 00:51 E 7 16.09 Overcast OVC013 25.6 23.9 27.8 25.6 90% 27 76.66 1020.2
13 23:51 E 15 16.09 Overcast BKN011 OVC170 25.6 23.3 87% 27 76.63 1019.9
13 22:51 E 9 16.09 Overcast BKN016 BKN170 OVC250 25.6 23.3 87% 27 76.63 1019.7
13 21:51 E 13 16.09 Overcast FEW070 BKN170 OVC250 26.1 23.3 85% 28 76.61 1019.4
13 20:51 SE 19 16.09 Overcast FEW070 OVC220 27.2 22.8 77% 30 76.58 1019.1
13 19:51 SE 11 16.09 Overcast OVC200 27.8 22.2 72% 30 76.53 1018.4
13 18:51 SE 11 16.09 Overcast OVC230 27.8 22.2 28.9 25 72% 30 76.5 1018.2
13 17:51 E 15 16.09 Overcast FEW026 BKN170 OVC250 28.3 22.2 70% 31 76.53 1018.4
13 16:51 E 9 16.09 Overcast FEW028 OVC150 28.9 23.3 72% 33 76.58 1019.2
13 15:51 E 6 16.09 Overcast FEW024 BKN110 OVC150 28.3 22.8 72% 32 76.61 1019.5
13 14:51 SE 13 16.09 Light Rain FEW024 SCT070 BKN120 OVC200 28.3 23.3 74% 32 76.66 1020.1
13 13:51 SE 17 G 35 16.09 Overcast SCT018 SCT070 OVC180 28.9 25 80% 34 76.66 1020.2
13 12:51 E 15 8.05 Thunderstorm Light Rain Fog/Mist BKN021CB OVC065 25 23.3 29.4 23.9 90% 26 76.71 1020.8 1.07 1.07
13 11:51 S 15 16.09 Overcast FEW020 BKN027 OVC160 29.4 23.9 72% 34 76.71 1020.7
13 10:51 E 7 16.09 Overcast BKN015 OVC160 27.8 23.9 79% 32 76.71 1020.7
13 09:51 E 9 16.09 Overcast BKN011 OVC015 26.1 23.3 85% 28 76.68 1020.7
13 08:51 E 7 14.48 Overcast BKN015 OVC021 25 22.2 85% 26 76.68 1020.5
13 07:51 E 6 16.09 Overcast FEW012 BKN120 OVC250 24.4 21.7 85% 25 76.63 1020.0
13 06:51 N 6 16.09 Mostly Cloudy BKN013 BKN120 BKN250 23.9 21.7 24.4 23.3 88% 24 76.58 1019.3
13 05:51 NE 6 16.09 Mostly Cloudy BKN010 23.9 21.7 88% 24 76.58 1019.0
13 04:51 NE 6 16.09 Mostly Cloudy BKN010 23.9 21.7 88% 24 76.53 1018.6
13 03:51 E 6 16.09 Overcast BKN011 OVC250 24.4 21.7 85% 25 76.53 1018.4
13 02:51 E 6 16.09 Overcast BKN009 OVC250 23.9 21.7 88% 24 76.53 1018.7
13 01:51 Calm 16.09 Mostly Cloudy BKN013 BKN250 23.3 21.7 91% 76.56 1018.8
13 00:51 SE 7 16.09 Mostly Cloudy SCT012 BKN250 23.9 21.1 26.7 23.9 84% 24 76.56 1018.8
12 23:51 S 9 16.09 Mostly Cloudy BKN013 BKN180 BKN250 24.4 21.1 82% 25 76.56 1018.6
12 22:51 S 9 16.09 Mostly Cloudy SCT170 BKN240 24.4 21.1 82% 25 76.53 1018.4
12 21:51 SE 17 16.09 Mostly Cloudy FEW015 BKN190 BKN250 25 21.1 79% 26 76.48 1017.8
12 20:51 SE 17 16.09 Mostly Cloudy FEW015 BKN190 BKN250 25.6 21.7 79% 27 76.43 1017.2
12 19:51 SE 15 16.09 Mostly Cloudy SCT016 BKN180 BKN250 26.7 22.2 76% 29 76.43 1016.9
Date Time (cdt) Wind (kph) Vis. (km) Weather Sky Cond. Air Dwpt Max. Min. Relative Humidity Wind Chill (°C) Heat Index (°C) altimeter (cm) sea level (mb) 1 hr 3 hr 6 hr
6 hour
Temperature (ºC) Pressure Precipitation (cm)